| time (UTC) | temp C | wind direction | speed KPH | gust KPH | rain 1hr cm | rain 24hr cm | rain mn cm | humidity % | barometer mb |
| 20260831163014 | 16 | 320 | 0.0 | 0.0 | 0.00 | 0.00 | 0.00 | 43 | 1023.0 |
| 20260831161551 | 15 | 319 | 0.0 | 1.6 | 0.00 | 0.00 | 0.00 | 44 | 1023.1 |
| 20260831160032 | 14 | 319 | 0.0 | 0.0 | 0.00 | 0.00 | 0.00 | 45 | 1023.2 |
| 20260831154523 | 14 | 318 | 0.0 | 0.0 | 0.00 | 0.00 | 0.00 | 47 | 1023.3 |
| 20260831153107 | 13 | 319 | 0.0 | 0.0 | 0.00 | 0.00 | 0.00 | 48 | 1023.2 |
| 20260831151545 | 12 | 279 | 0.0 | 0.0 | 0.00 | 0.00 | 0.00 | 51 | 1023.2 |
| 20260831150010 | 12 | 279 | 0.0 | 0.0 | 0.00 | 0.00 | 0.00 | 53 | 1023.1 |
| 20260831144545 | 11 | 274 | 0.0 | 0.0 | 0.00 | 0.00 | 0.00 | 57 | 1023.2 |
| 20260831143024 | 9 | 267 | 0.0 | 0.0 | 0.00 | 0.00 | 0.00 | 65 | 1023.1 |
| 20260831141510 | 8 | 222 | 0.0 | 0.0 | 0.00 | 0.00 | 0.00 | 69 | 1022.9 |
| 20260831140100 | 7 | 223 | 0.0 | 0.0 | 0.00 | 0.00 | 0.00 | 67 | 1022.9 |
| 20260831140001 | 7 | 223 | 0.0 | 0.0 | 0.00 | 0.00 | 0.00 | 67 | 1022.9 |
| 20260831134604 | 7 | 223 | 0.0 | 0.0 | 0.00 | 0.00 | 0.00 | 67 | 1022.9 |
| 20260831133104 | 7 | 223 | 0.0 | 0.0 | 0.00 | 0.00 | 0.00 | 66 | 1022.9 |
| 20260831131556 | 7 | 223 | 0.0 | 0.0 | 0.00 | 0.00 | 0.00 | 66 | 1022.9 |
| 20260831130044 | 7 | 223 | 0.0 | 0.0 | 0.00 | 0.00 | 0.00 | 65 | 1022.7 |
| 20260831124520 | 7 | 223 | 0.0 | 0.0 | 0.00 | 0.00 | 0.00 | 65 | 1022.7 |
| 20260831123014 | 7 | 222 | 0.0 | 0.0 | 0.00 | 0.00 | 0.00 | 65 | 1022.8 |
| 20260831121503 | 7 | 223 | 0.0 | 0.0 | 0.00 | 0.00 | 0.00 | 65 | 1022.8 |
| 20260831120045 | 7 | 223 | 0.0 | 0.0 | 0.00 | 0.00 | 0.00 | 64 | 1022.9 |
| 20260831114521 | 7 | 222 | 0.0 | 0.0 | 0.00 | 0.00 | 0.00 | 63 | 1022.9 |
| 20260831113012 | 7 | 223 | 0.0 | 0.0 | 0.00 | 0.00 | 0.00 | 63 | 1022.9 |
| 20260831111509 | 7 | 232 | 0.0 | 0.0 | 0.00 | 0.00 | 0.00 | 63 | 1022.9 |
| 20260831110047 | 7 | 232 | 0.0 | 0.0 | 0.00 | 0.00 | 0.00 | 63 | 1023.0 |
| 20260831104533 | 7 | 232 | 0.0 | 0.0 | 0.00 | 0.00 | 0.00 | 62 | 1023.0 |
| 20260831103022 | 7 | 232 | 0.0 | 0.0 | 0.00 | 0.00 | 0.00 | 62 | 1023.0 |
| 20260831101512 | 8 | 232 | 0.0 | 0.0 | 0.00 | 0.00 | 0.00 | 61 | 1023.1 |
| 20260831100059 | 8 | 238 | 0.0 | 0.0 | 0.00 | 0.00 | 0.00 | 61 | 1023.1 |
| 20260831094559 | 8 | 238 | 0.0 | 0.0 | 0.00 | 0.00 | 0.00 | 60 | 1023.1 |
| 20260831093048 | 8 | 237 | 0.0 | 0.0 | 0.00 | 0.00 | 0.00 | 60 | 1023.2 |
| 20260831091525 | 8 | 238 | 0.0 | 0.0 | 0.00 | 0.00 | 0.00 | 60 | 1023.2 |
| 20260831090003 | 8 | 238 | 0.0 | 0.0 | 0.00 | 0.00 | 0.00 | 59 | 1023.4 |
| 20260831084650 | 8 | 238 | 0.0 | 0.0 | 0.00 | 0.00 | 0.00 | 58 | 1023.4 |
| 20260831084503 | 8 | 238 | 0.0 | 0.0 | 0.00 | 0.00 | 0.00 | 58 | 1023.4 |
| 20260831083050 | 8 | 237 | 0.0 | 0.0 | 0.00 | 0.00 | 0.00 | 59 | 1023.4 |
| 20260831081525 | 8 | 238 | 0.0 | 0.0 | 0.00 | 0.00 | 0.00 | 59 | 1023.3 |
| 20260831080027 | 8 | 237 | 0.0 | 0.0 | 0.00 | 0.00 | 0.00 | 57 | 1023.3 |
| 20260831074557 | 9 | 237 | 0.0 | 0.0 | 0.00 | 0.00 | 0.00 | 56 | 1023.4 |
| 20260831073042 | 10 | 238 | 0.0 | 0.0 | 0.00 | 0.00 | 0.00 | 55 | 1023.3 |
| 20260831071517 | 10 | 250 | 0.0 | 0.0 | 0.00 | 0.00 | 0.00 | 54 | 1023.2 |
| 20260831070029 | 10 | 248 | 0.0 | 0.0 | 0.00 | 0.00 | 0.00 | 52 | 1023.3 |
| 20260831064510 | 11 | 154 | 0.0 | 0.0 | 0.00 | 0.00 | 0.00 | 51 | 1023.2 |
| 20260831063110 | 11 | 155 | 0.0 | 0.0 | 0.00 | 0.00 | 0.00 | 51 | 1023.3 |
| 20260831061552 | 11 | 155 | 0.0 | 0.0 | 0.00 | 0.00 | 0.00 | 51 | 1023.4 |
| 20260831060049 | 11 | 149 | 0.0 | 0.0 | 0.00 | 0.00 | 0.00 | 50 | 1023.6 |
| 20260831054536 | 11 | 153 | 0.0 | 0.0 | 0.00 | 0.00 | 0.00 | 50 | 1023.7 |
| 20260831053026 | 11 | 153 | 0.0 | 0.0 | 0.00 | 0.00 | 0.00 | 49 | 1023.7 |
| 20260831051524 | 11 | 146 | 0.0 | 0.0 | 0.00 | 0.00 | 0.00 | 49 | 1023.6 |
| 20260831050009 | 12 | 153 | 0.0 | 0.0 | 0.00 | 0.00 | 0.00 | 49 | 1023.7 |
| 20260831044512 | 12 | 151 | 0.0 | 0.0 | 0.00 | 0.00 | 0.00 | 48 | 1023.7 |
| 20260831043051 | 12 | 163 | 0.0 | 0.0 | 0.00 | 0.00 | 0.00 | 49 | 1023.6 |
| 20260831041537 | 12 | 161 | 0.0 | 0.0 | 0.00 | 0.00 | 0.00 | 49 | 1023.7 |
| 20260831040036 | 12 | 162 | 0.0 | 4.8 | 0.00 | 0.00 | 0.00 | 48 | 1023.6 |
| 20260831034526 | 13 | 106 | 0.0 | 0.0 | 0.00 | 0.00 | 0.00 | 47 | 1023.6 |
| 20260831033012 | 13 | 105 | 0.0 | 0.0 | 0.00 | 0.00 | 0.00 | 46 | 1023.4 |
| 20260831031559 | 14 | 137 | 0.0 | 0.0 | 0.00 | 0.00 | 0.00 | 44 | 1023.3 |
| 20260831030054 | 15 | 137 | 0.0 | 0.0 | 0.00 | 0.00 | 0.00 | 42 | 1023.0 |
| 20260831024549 | 16 | 57 | 0.0 | 0.0 | 0.00 | 0.00 | 0.00 | 38 | 1022.8 |
| 20260831023025 | 17 | 23 | 0.0 | 3.2 | 0.00 | 0.00 | 0.00 | 36 | 1022.8 |
| 20260831021512 | 18 | 26 | 0.0 | 6.4 | 0.00 | 0.00 | 0.00 | 35 | 1022.7 |
| 20260831020002 | 18 | 20 | 0.0 | 4.8 | 0.00 | 0.00 | 0.00 | 35 | 1022.6 |
| 20260831014615 | 18 | 5 | 0.0 | 8.0 | 0.00 | 0.00 | 0.00 | 33 | 1022.7 |
| 20260831013054 | 19 | 32 | 0.0 | 8.0 | 0.00 | 0.00 | 0.00 | 33 | 1022.7 |
| 20260831011529 | 20 | 5 | 0.0 | 8.0 | 0.00 | 0.00 | 0.00 | 32 | 1022.7 |
| 20260831010017 | 20 | 43 | 1.6 | 8.0 | 0.00 | 0.00 | 0.00 | 32 | 1022.6 |
| 20260831004502 | 20 | 70 | 1.6 | 6.4 | 0.00 | 0.00 | 0.00 | 32 | 1022.7 |
| 20260831003043 | 20 | 58 | 1.6 | 9.7 | 0.00 | 0.00 | 0.00 | 32 | 1022.8 |
| 20260831001541 | 20 | 32 | 1.6 | 12.9 | 0.00 | 0.00 | 0.00 | 32 | 1022.8 |
| 20260831000025 | 20 | 5 | 1.6 | 4.8 | 0.00 | 0.00 | 0.00 | 32 | 1022.8 |
| 20260830234517 | 20 | 22 | 1.6 | 9.7 | 0.00 | 0.00 | 0.00 | 30 | 1022.8 |
| 20260830233011 | 21 | 29 | 1.6 | 4.8 | 0.00 | 0.00 | 0.00 | 28 | 1022.8 |
| 20260830231559 | 21 | 10 | 0.0 | 11.3 | 0.00 | 0.00 | 0.00 | 24 | 1023.0 |
| 20260830230042 | 21 | 331 | 1.6 | 17.7 | 0.00 | 0.00 | 0.00 | 24 | 1023.0 |
| 20260830224523 | 21 | 300 | 1.6 | 19.3 | 0.00 | 0.00 | 0.00 | 22 | 1023.1 |
| 20260830223013 | 21 | 271 | 1.6 | 12.9 | 0.00 | 0.00 | 0.00 | 23 | 1023.3 |
| 20260830221509 | 21 | 239 | 3.2 | 25.7 | 0.00 | 0.00 | 0.00 | 23 | 1023.3 |
| 20260830220047 | 21 | 286 | 3.2 | 12.9 | 0.00 | 0.00 | 0.00 | 23 | 1023.4 |
| 20260830214535 | 20 | 217 | 1.6 | 19.3 | 0.00 | 0.00 | 0.00 | 25 | 1023.6 |
| 20260830213021 | 20 | 271 | 4.8 | 20.9 | 0.00 | 0.00 | 0.00 | 24 | 1023.8 |
| 20260830211513 | 20 | 286 | 3.2 | 14.5 | 0.00 | 0.00 | 0.00 | 24 | 1023.9 |
| 20260830210005 | 21 | 266 | 1.6 | 16.1 | 0.00 | 0.00 | 0.00 | 24 | 1023.9 |
| 20260830204558 | 20 | 292 | 3.2 | 17.7 | 0.00 | 0.00 | 0.00 | 28 | 1024.0 |
| 20260830203049 | 20 | 327 | 1.6 | 24.1 | 0.00 | 0.00 | 0.00 | 30 | 1024.0 |
| 20260830201539 | 21 | 321 | 0.0 | 12.9 | 0.00 | 0.00 | 0.00 | 27 | 1024.0 |
| 20260830200021 | 20 | 271 | 3.2 | 17.7 | 0.00 | 0.00 | 0.00 | 30 | 1024.0 |
| 20260830194515 | 20 | 313 | 0.0 | 17.7 | 0.00 | 0.00 | 0.00 | 29 | 1024.1 |
| 20260830193059 | 20 | 212 | 0.0 | 14.5 | 0.00 | 0.00 | 0.00 | 26 | 1024.2 |
| 20260830191543 | 20 | 290 | 3.2 | 12.9 | 0.00 | 0.00 | 0.00 | 28 | 1024.3 |
| 20260830190029 | 20 | 302 | 1.6 | 17.7 | 0.00 | 0.00 | 0.00 | 27 | 1024.3 |
| 20260830184511 | 19 | 268 | 1.6 | 19.3 | 0.00 | 0.00 | 0.00 | 32 | 1024.3 |
| 20260830183056 | 19 | 268 | 4.8 | 19.3 | 0.00 | 0.00 | 0.00 | 32 | 1024.4 |
| 20260830181547 | 18 | 275 | 1.6 | 17.7 | 0.00 | 0.00 | 0.00 | 31 | 1024.6 |
| 20260830180035 | 18 | 265 | 0.0 | 8.0 | 0.00 | 0.00 | 0.00 | 34 | 1024.7 |
| 20260830174529 | 17 | 263 | 0.0 | 3.2 | 0.00 | 0.00 | 0.00 | 37 | 1024.6 |
| 20260830173006 | 17 | 28 | 0.0 | 14.5 | 0.00 | 0.00 | 0.00 | 37 | 1024.6 |
| 20260830171556 | 16 | 25 | 1.6 | 6.4 | 0.00 | 0.00 | 0.00 | 44 | 1024.8 |
| 20260830170025 | 16 | 5 | 1.6 | 6.4 | 0.00 | 0.00 | 0.00 | 44 | 1024.8 |
| 20260830164512 | 16 | 225 | 1.6 | 14.5 | 0.00 | 0.00 | 0.00 | 44 | 1024.8 |